TimeCST,TemperatureF,Dew PointF,Humidity,Sea Level PressureIn,VisibilityMPH,Wind Direction,Wind SpeedMPH,Gust SpeedMPH,PrecipitationIn,Events,Conditions,WindDirDegrees,DateUTC
12:53 AM,46.0,35.1,66,30.30,10.0,NNE,4.6,-,N/A,,Overcast,30,2013-12-26 06:53:00
1:53 AM,46.0,35.1,66,30.29,10.0,NNE,3.5,-,N/A,,Overcast,30,2013-12-26 07:53:00
2:53 AM,45.0,35.1,68,30.29,10.0,NE,4.6,-,N/A,,Mostly Cloudy,40,2013-12-26 08:53:00
3:22 AM,44.6,35.6,71,30.28,10.0,NE,3.5,-,N/A,,Overcast,40,2013-12-26 09:22:00
3:42 AM,44.6,35.6,71,30.29,10.0,NNE,8.1,-,N/A,,Overcast,30,2013-12-26 09:42:00
3:53 AM,45.0,36.0,71,30.28,10.0,NNE,4.6,-,N/A,,Overcast,30,2013-12-26 09:53:00
4:53 AM,45.0,36.0,71,30.28,10.0,NNE,3.5,-,N/A,,Overcast,30,2013-12-26 10:53:00
5:53 AM,42.1,36.0,79,30.29,10.0,Calm,Calm,-,N/A,,Clear,0,2013-12-26 11:53:00
6:22 AM,42.8,35.6,76,30.30,10.0,Calm,Calm,-,N/A,,Mostly Cloudy,0,2013-12-26 12:22:00
6:34 AM,39.2,35.6,87,30.31,10.0,Calm,Calm,-,N/A,,Scattered Clouds,0,2013-12-26 12:34:00
6:53 AM,37.9,34.0,86,30.31,9.0,North,4.6,-,N/A,,Clear,360,2013-12-26 12:53:00
7:53 AM,44.1,36.0,73,30.33,10.0,NNE,4.6,-,N/A,,Clear,20,2013-12-26 13:53:00
8:12 AM,44.6,37.4,76,30.34,10.0,NNE,5.8,-,N/A,,Mostly Cloudy,20,2013-12-26 14:12:00
8:53 AM,46.0,36.0,68,30.35,10.0,Variable,3.5,-,N/A,,Overcast,0,2013-12-26 14:53:00
9:53 AM,48.9,37.0,64,30.33,10.0,NNE,8.1,-,N/A,,Overcast,20,2013-12-26 15:53:00
10:53 AM,53.1,39.0,59,30.32,10.0,NE,8.1,-,N/A,,Overcast,40,2013-12-26 16:53:00
11:16 AM,53.6,39.2,58,30.30,10.0,NE,4.6,-,N/A,,Scattered Clouds,40,2013-12-26 17:16:00
11:53 AM,57.0,39.0,51,30.28,10.0,North,-9999.0,-,N/A,,Unknown,0,2013-12-26 17:53:00
12:53 PM,59.0,39.9,49,30.26,10.0,Variable,6.9,-,N/A,,Clear,0,2013-12-26 18:53:00
1:53 PM,57.0,39.9,53,30.25,10.0,NNE,6.9,-,N/A,,Partly Cloudy,30,2013-12-26 19:53:00
2:53 PM,55.9,39.0,53,30.25,10.0,NNE,8.1,-,N/A,,Clear,30,2013-12-26 20:53:00
3:53 PM,54.0,39.0,57,30.26,10.0,North,5.8,-,N/A,,Clear,10,2013-12-26 21:53:00
4:53 PM,50.0,39.9,68,30.27,10.0,North,4.6,-,N/A,,Clear,360,2013-12-26 22:53:00
5:53 PM,48.0,37.9,68,30.28,10.0,North,5.8,-,N/A,,Clear,10,2013-12-26 23:53:00
6:53 PM,46.0,37.0,71,30.29,10.0,NNE,5.8,-,N/A,,Clear,20,2013-12-27 00:53:00
7:53 PM,45.0,37.0,74,30.29,10.0,Calm,Calm,-,N/A,,Clear,0,2013-12-27 01:53:00
8:53 PM,42.1,37.9,85,30.31,10.0,Calm,Calm,-,N/A,,Clear,0,2013-12-27 02:53:00
9:53 PM,39.9,37.0,89,30.31,10.0,Calm,Calm,-,N/A,,Clear,0,2013-12-27 03:53:00
10:53 PM,39.9,37.0,89,30.31,10.0,Calm,Calm,-,N/A,,Clear,0,2013-12-27 04:53:00
11:53 PM,39.9,37.0,89,30.30,9.0,Calm,Calm,-,N/A,,Clear,0,2013-12-27 05:53:00